International Skating Union - Official Site

ISU World Cup Astana
December 2-4, 2016

Draw | Lap Times | Index | World Cup

Referee: Masaru  MOROZUMI  (JPN)
Starter: Evgeniy  BOYARSKIY  (RUS)
StartTime: EndTime: Air Temp: Ice Temp: Humidity:
14:01 15:28 16.5℃ -6.5℃ 38.0%
Result 5000m Men Division B
Rankings as of Dec 2 2016 10:01PM
Rank: No.: Name: Nation: Time: Behind: Points:
1 83 Jan  Blokhuijsen NED NED 6:19.31200m - 18.62 - (18.6)
600m - 47.32 - (28.6)
1000m - 1:16.76 - (29.4)
1400m - 1:46.70 - (29.9)
1800m - 2:16.80 - (30.1)
2200m - 2:46.53 - (29.7)
2600m - 3:16.49 - (29.9)
3000m - 3:46.37 - (29.8)
3400m - 4:16.39 - (30.0)
3800m - 4:46.72 - (30.3)
4200m - 5:17.32 - (30.5)
4600m - 5:48.02 - (30.6)
5000m - 6:19.31 - (31.2)
32
2 85 Evert  Hoolwerf NED NED 6:19.40200m - 18.44 - (18.4)
600m - 47.92 - (29.4)
1000m - 1:17.74 - (29.8)
1400m - 1:47.10 - (29.3)
1800m - 2:16.78 - (29.6)
2200m - 2:46.65 - (29.8)
2600m - 3:16.49 - (29.8)
3000m - 3:46.46 - (29.9)
3400m - 4:16.87 - (30.4)
3800m - 4:47.50 - (30.6)
4200m - 5:18.27 - (30.7)
4600m - 5:49.05 - (30.7)
5000m - 6:19.40 - (30.3)
0.09 27
3 91 Mats  Stoltenborg NED NED 6:22.22200m - 20.19 - (20.1)
600m - 50.39 - (30.1)
1000m - 1:20.55 - (30.1)
1400m - 1:50.57 - (30.0)
1800m - 2:20.54 - (29.9)
2200m - 2:50.91 - (30.3)
2600m - 3:20.94 - (30.0)
3000m - 3:51.03 - (30.0)
3400m - 4:21.09 - (30.0)
3800m - 4:51.36 - (30.2)
4200m - 5:21.47 - (30.1)
4600m - 5:51.63 - (30.1)
5000m - 6:22.22 - (30.5)
2.91 23
4 84 Bob  de Vries NED NED 6:23.62200m - 19.71 - (19.7)
600m - 49.40 - (29.6)
1000m - 1:19.45 - (30.0)
1400m - 1:49.54 - (30.0)
1800m - 2:19.68 - (30.1)
2200m - 2:49.79 - (30.1)
2600m - 3:19.89 - (30.0)
3000m - 3:49.87 - (29.9)
3400m - 4:20.12 - (30.2)
3800m - 4:50.43 - (30.3)
4200m - 5:21.24 - (30.8)
4600m - 5:52.04 - (30.8)
5000m - 6:23.62 - (31.5)
4.31 19
5 125 Danil  Sinitsyn RUS RUS 6:25.69200m - 19.12 - (19.1)
600m - 48.97 - (29.8)
1000m - 1:19.43 - (30.4)
1400m - 1:49.98 - (30.5)
1800m - 2:20.56 - (30.5)
2200m - 2:50.76 - (30.2)
2600m - 3:20.81 - (30.0)
3000m - 3:51.10 - (30.2)
3400m - 4:21.48 - (30.3)
3800m - 4:52.17 - (30.6)
4200m - 5:23.16 - (30.9)
4600m - 5:54.62 - (31.4)
5000m - 6:25.69 - (31.0)
6.38 15
6 65 Dmitry  Babenko KAZ KAZ 6:27.01200m - 19.48 - (19.4)
600m - 50.45 - (30.9)
1000m - 1:21.35 - (30.8)
1400m - 1:52.18 - (30.8)
1800m - 2:23.16 - (30.9)
2200m - 2:53.71 - (30.5)
2600m - 3:24.18 - (30.4)
3000m - 3:54.31 - (30.1)
3400m - 4:24.50 - (30.1)
3800m - 4:54.88 - (30.3)
4200m - 5:25.49 - (30.6)
4600m - 5:56.46 - (30.9)
5000m - 6:27.01 - (30.5)
7.70 11
7 33 Viktor Hald  Thorup DEN DEN 6:28.30200m - 20.27 - (20.2)
600m - 50.84 - (30.5)
1000m - 1:21.07 - (30.2)
1400m - 1:51.10 - (30.0)
1800m - 2:21.30 - (30.2)
2200m - 2:51.53 - (30.2)
2600m - 3:21.90 - (30.3)
3000m - 3:52.26 - (30.3)
3400m - 4:22.90 - (30.6)
3800m - 4:53.66 - (30.7)
4200m - 5:24.86 - (31.1)
4600m - 5:56.40 - (31.5)
5000m - 6:28.30 - (31.9)
8.99 9
8 8 Vitaly  Mikhailov BLR BLR 6:28.58200m - 19.83 - (19.8)
600m - 50.96 - (31.1)
1000m - 1:21.16 - (30.1)
1400m - 1:51.74 - (30.5)
1800m - 2:22.06 - (30.3)
2200m - 2:52.84 - (30.7)
2600m - 3:23.43 - (30.5)
3000m - 3:54.05 - (30.6)
3400m - 4:24.81 - (30.7)
3800m - 4:55.90 - (31.0)
4200m - 5:26.66 - (30.7)
4600m - 5:57.66 - (31.0)
5000m - 6:28.58 - (30.9)
9.27 7
9 111 Jan  Szymanski POL POL 6:28.97200m - 18.94 - (18.9)
600m - 49.01 - (30.0)
1000m - 1:19.56 - (30.5)
1400m - 1:50.28 - (30.7)
1800m - 2:21.11 - (30.8)
2200m - 2:51.66 - (30.5)
2600m - 3:22.61 - (30.9)
3000m - 3:53.38 - (30.7)
3400m - 4:24.24 - (30.8)
3800m - 4:55.31 - (31.0)
4200m - 5:26.57 - (31.2)
4600m - 5:57.61 - (31.0)
5000m - 6:28.97 - (31.3)
9.66 6
10 102 Reyon  Kay NZL NZL 6:29.28200m - 19.43 - (19.4)
600m - 49.11 - (29.6)
1000m - 1:19.08 - (29.9)
1400m - 1:49.25 - (30.1)
1800m - 2:19.56 - (30.3)
2200m - 2:50.22 - (30.6)
2600m - 3:20.80 - (30.5)
3000m - 3:51.82 - (31.0)
3400m - 4:23.01 - (31.1)
3800m - 4:54.56 - (31.5)
4200m - 5:26.04 - (31.4)
4600m - 5:57.92 - (31.8)
5000m - 6:29.28 - (31.3)
9.97 5
11 95 Sindre  Henriksen NOR NOR 6:29.59200m - 18.84 - (18.8)
600m - 48.82 - (29.9)
1000m - 1:19.07 - (30.2)
1400m - 1:49.40 - (30.3)
1800m - 2:19.78 - (30.3)
2200m - 2:50.41 - (30.6)
2600m - 3:21.39 - (30.9)
3000m - 3:52.54 - (31.1)
3400m - 4:23.62 - (31.0)
3800m - 4:54.94 - (31.3)
4200m - 5:26.69 - (31.7)
4600m - 5:57.85 - (31.1)
5000m - 6:29.59 - (31.7)
10.28 4
12 100 Thomas  Søfteland NOR NOR 6:32.11200m - 20.14 - (20.1)
600m - 50.97 - (30.8)
1000m - 1:21.76 - (30.7)
1400m - 1:52.46 - (30.6)
1800m - 2:23.08 - (30.6)
2200m - 2:54.17 - (31.0)
2600m - 3:25.16 - (30.9)
3000m - 3:56.10 - (30.9)
3400m - 4:27.03 - (30.9)
3800m - 4:58.03 - (31.0)
4200m - 5:28.88 - (30.8)
4600m - 6:00.28 - (31.3)
5000m - 6:32.11 - (31.8)
12.80 3
13 98 Simen Spieler  Nilsen NOR NOR 6:32.32200m - 19.01 - (19.0)
600m - 49.43 - (30.4)
1000m - 1:20.34 - (30.9)
1400m - 1:51.19 - (30.8)
1800m - 2:21.95 - (30.7)
2200m - 2:52.53 - (30.5)
2600m - 3:23.46 - (30.9)
3000m - 3:54.11 - (30.6)
3400m - 4:25.03 - (30.9)
3800m - 4:56.32 - (31.2)
4200m - 5:27.85 - (31.5)
4600m - 5:59.70 - (31.8)
5000m - 6:32.32 - (32.6)
13.01 2
14 4 Linus  Heidegger AUT AUT 6:32.54200m - 19.17 - (19.1)
600m - 50.32 - (31.1)
1000m - 1:21.35 - (31.0)
1400m - 1:51.86 - (30.5)
1800m - 2:22.78 - (30.9)
2200m - 2:53.83 - (31.0)
2600m - 3:24.86 - (31.0)
3000m - 3:55.80 - (30.9)
3400m - 4:26.88 - (31.0)
3800m - 4:58.08 - (31.1)
4200m - 5:29.50 - (31.4)
4600m - 6:00.89 - (31.3)
5000m - 6:32.54 - (31.6)
13.23 1
15 79 Min Seok  Kim KOR KOR 6:33.05200m - 20.13 - (20.1)
600m - 50.93 - (30.8)
1000m - 1:21.83 - (30.8)
1400m - 1:52.81 - (30.9)
1800m - 2:23.62 - (30.8)
2200m - 2:54.80 - (31.1)
2600m - 3:25.48 - (30.6)
3000m - 3:56.34 - (30.8)
3400m - 4:27.33 - (30.9)
3800m - 4:58.78 - (31.4)
4200m - 5:30.08 - (31.3)
4600m - 6:01.54 - (31.4)
5000m - 6:33.05 - (31.5)
13.74 0
16 31 Sebastian  Druszkiewicz CZE CZE 6:33.13200m - 19.90 - (19.8)
600m - 50.14 - (30.2)
1000m - 1:21.21 - (31.0)
1400m - 1:51.87 - (30.6)
1800m - 2:22.65 - (30.7)
2200m - 2:53.40 - (30.7)
2600m - 3:24.25 - (30.8)
3000m - 3:55.21 - (30.9)
3400m - 4:26.36 - (31.1)
3800m - 4:57.85 - (31.4)
4200m - 5:29.73 - (31.8)
4600m - 6:01.50 - (31.7)
5000m - 6:33.13 - (31.6)
13.82 0
17 113 Adrian  Wielgat POL POL 6:33.86200m - 19.82 - (19.8)
600m - 50.88 - (31.0)
1000m - 1:22.46 - (31.5)
1400m - 1:53.60 - (31.1)
1800m - 2:24.54 - (30.9)
2200m - 2:55.37 - (30.8)
2600m - 3:26.14 - (30.7)
3000m - 3:56.79 - (30.6)
3400m - 4:27.65 - (30.8)
3800m - 4:58.76 - (31.1)
4200m - 5:30.22 - (31.4)
4600m - 6:01.93 - (31.7)
5000m - 6:33.86 - (31.9)
14.55 0
18 126 Sergey  Trofimov RUS RUS 6:34.67200m - 18.81 - (18.8)
600m - 48.86 - (30.0)
1000m - 1:19.55 - (30.6)
1400m - 1:50.46 - (30.9)
1800m - 2:21.31 - (30.8)
2200m - 2:52.59 - (31.2)
2600m - 3:23.75 - (31.1)
3000m - 3:54.94 - (31.1)
3400m - 4:26.28 - (31.3)
3800m - 4:57.96 - (31.6)
4200m - 5:29.87 - (31.9)
4600m - 6:02.25 - (32.3)
5000m - 6:34.67 - (32.4)
15.36 0
19 115 Sergey  Gryaztsov RUS RUS 6:37.04200m - 19.13 - (19.1)
600m - 49.69 - (30.5)
1000m - 1:20.74 - (31.0)
1400m - 1:51.69 - (30.9)
1800m - 2:22.73 - (31.0)
2200m - 2:53.62 - (30.8)
2600m - 3:24.83 - (31.2)
3000m - 3:56.25 - (31.4)
3400m - 4:27.76 - (31.5)
3800m - 4:59.59 - (31.8)
4200m - 5:31.54 - (31.9)
4600m - 6:03.97 - (32.4)
5000m - 6:37.04 - (33.0)
17.73 0
20 130 Livio  Wenger SUI SUI 6:37.28200m - 19.30 - (19.3)
600m - 49.92 - (30.6)
1000m - 1:20.58 - (30.6)
1400m - 1:51.26 - (30.6)
1800m - 2:22.02 - (30.7)
2200m - 2:52.64 - (30.6)
2600m - 3:23.18 - (30.5)
3000m - 3:54.06 - (30.8)
3400m - 4:25.11 - (31.0)
3800m - 4:57.05 - (31.9)
4200m - 5:30.04 - (32.9)
4600m - 6:03.17 - (33.1)
5000m - 6:37.28 - (34.1)
17.97 0
21 124 Yevgeny  Seryaev RUS RUS 6:37.72200m - 19.90 - (19.8)
600m - 50.54 - (30.6)
1000m - 1:21.20 - (30.6)
1400m - 1:52.17 - (30.9)
1800m - 2:23.35 - (31.1)
2200m - 2:54.58 - (31.2)
2600m - 3:25.87 - (31.2)
3000m - 3:57.54 - (31.6)
3400m - 4:28.82 - (31.2)
3800m - 5:00.61 - (31.7)
4200m - 5:32.76 - (32.1)
4600m - 6:05.24 - (32.4)
5000m - 6:37.72 - (32.4)
18.41 0
22 106 Roland  Cieslak POL POL 6:38.02200m - 19.98 - (19.9)
600m - 51.30 - (31.3)
1000m - 1:23.01 - (31.7)
1400m - 1:54.88 - (31.8)
1800m - 2:26.63 - (31.7)
2200m - 2:58.63 - (32.0)
2600m - 3:30.46 - (31.8)
3000m - 4:02.08 - (31.6)
3400m - 4:33.19 - (31.1)
3800m - 5:04.13 - (30.9)
4200m - 5:35.26 - (31.1)
4600m - 6:06.55 - (31.2)
5000m - 6:38.02 - (31.4)
18.71 0
23 22 Yiming  Liu CHN CHN 6:39.29200m - 19.75 - (19.7)
600m - 50.79 - (31.0)
1000m - 1:22.16 - (31.3)
1400m - 1:53.25 - (31.0)
1800m - 2:24.48 - (31.2)
2200m - 2:55.75 - (31.2)
2600m - 3:27.02 - (31.2)
3000m - 3:58.26 - (31.2)
3400m - 4:29.84 - (31.5)
3800m - 5:01.78 - (31.9)
4200m - 5:34.02 - (32.2)
4600m - 6:06.26 - (32.2)
5000m - 6:39.29 - (33.0)
19.98 0
24 133 KC  Boutiette USA USA 6:40.46200m - 19.37 - (19.3)
600m - 49.43 - (30.0)
1000m - 1:20.07 - (30.6)
1400m - 1:51.24 - (31.1)
1800m - 2:22.49 - (31.2)
2200m - 2:53.96 - (31.4)
2600m - 3:25.51 - (31.5)
3000m - 3:57.62 - (32.1)
3400m - 4:30.12 - (32.5)
3800m - 5:02.28 - (32.1)
4200m - 5:34.81 - (32.5)
4600m - 6:07.58 - (32.7)
5000m - 6:40.46 - (32.8)
21.15 0
25 101 Shane  Dobbin NZL NZL 6:42.18200m - 19.71 - (19.7)
600m - 50.54 - (30.8)
1000m - 1:22.22 - (31.6)
1400m - 1:54.36 - (32.1)
1800m - 2:26.56 - (32.2)
2200m - 2:58.38 - (31.8)
2600m - 3:30.45 - (32.0)
3000m - 4:02.56 - (32.1)
3400m - 4:34.35 - (31.7)
3800m - 5:06.12 - (31.7)
4200m - 5:38.27 - (32.1)
4600m - 6:10.12 - (31.8)
5000m - 6:42.18 - (32.0)
22.87 0
26 66 Maksim  Baklashkin KAZ KAZ 6:43.86200m - 19.44 - (19.4)
600m - 50.35 - (30.9)
1000m - 1:21.72 - (31.3)
1400m - 1:52.67 - (30.9)
1800m - 2:23.88 - (31.2)
2200m - 2:55.31 - (31.4)
2600m - 3:27.26 - (31.9)
3000m - 3:59.26 - (32.0)
3400m - 4:31.46 - (32.1)
3800m - 5:03.89 - (32.4)
4200m - 5:36.68 - (32.7)
4600m - 6:09.73 - (33.0)
5000m - 6:43.86 - (34.1)
24.55 0
27 1 Joshua  Capponi AUS AUS 6:44.47200m - 19.46 - (19.4)
600m - 50.45 - (30.9)
1000m - 1:21.22 - (30.7)
1400m - 1:52.24 - (31.0)
1800m - 2:23.57 - (31.3)
2200m - 2:55.09 - (31.5)
2600m - 3:27.11 - (32.0)
3000m - 3:59.65 - (32.5)
3400m - 4:31.84 - (32.1)
3800m - 5:04.35 - (32.5)
4200m - 5:37.45 - (33.0)
4600m - 6:10.90 - (33.4)
5000m - 6:44.47 - (33.5)
25.16 0
28 27 Yu  Wu CHN CHN 6:52.62200m - 19.81 - (19.8)
600m - 50.87 - (31.0)
1000m - 1:21.69 - (30.8)
1400m - 1:53.03 - (31.3)
1800m - 2:24.40 - (31.3)
2200m - 2:56.55 - (32.1)
2600m - 3:29.22 - (32.6)
3000m - 4:02.48 - (33.2)
3400m - 4:35.77 - (33.2)
3800m - 5:09.82 - (34.0)
4200m - 5:44.11 - (34.2)
4600m - 6:18.66 - (34.5)
5000m - 6:52.62 - (33.9)
33.31 0
29 46 Konrád  Nagy HUN HUN 7:08.13200m - 20.46 - (20.4)
600m - 50.69 - (30.2)
1000m - 1:21.75 - (31.0)
1400m - 1:53.06 - (31.3)
1800m - 2:24.53 - (31.4)
2200m - 2:56.76 - (32.2)
2600m - 3:30.10 - (33.3)
3000m - 4:04.56 - (34.4)
3400m - 4:40.01 - (35.4)
3800m - 5:16.39 - (36.3)
4200m - 5:52.89 - (36.5)
4600m - 6:30.49 - (37.6)
5000m - 7:08.13 - (37.6)
48.82 0